Time,TemperatureF,DewpointF,PressureIn,WindDirection,WindDirectionDegrees,WindSpeedMPH,WindSpeedGustMPH,Humidity,HourlyPrecipIn,Conditions,Clouds,dailyrainin,SoftwareType,DateUTC
2017-03-23 00:01:00,42.0,28.0,30.15,SE,135,0.0,10.0,55,0.00,,,0.00,Rainwise IP-100,2017-03-23 05:01:00,
2017-03-23 00:06:00,42.0,28.0,30.15,SE,135,0.0,13.0,55,0.00,,,0.00,Rainwise IP-100,2017-03-23 05:06:00,
2017-03-23 00:11:00,42.0,28.0,30.15,South,180,1.0,9.0,55,0.00,,,0.00,Rainwise IP-100,2017-03-23 05:11:00,
2017-03-23 00:16:00,42.0,28.0,30.15,SE,135,0.0,9.0,55,0.00,,,0.00,Rainwise IP-100,2017-03-23 05:16:00,
2017-03-23 00:21:00,42.0,28.0,30.15,ENE,67,0.0,10.0,54,0.00,,,0.00,Rainwise IP-100,2017-03-23 05:21:00,
2017-03-23 00:26:00,42.0,28.0,30.15,ESE,112,1.0,12.0,54,0.00,,,0.00,Rainwise IP-100,2017-03-23 05:26:00,
2017-03-23 00:31:00,42.0,28.0,30.15,SSE,157,0.0,13.0,54,0.00,,,0.00,Rainwise IP-100,2017-03-23 05:31:00,
2017-03-23 00:36:00,42.0,28.0,30.15,SSE,157,0.0,14.0,54,0.00,,,0.00,Rainwise IP-100,2017-03-23 05:36:00,
2017-03-23 00:41:00,42.0,26.0,30.15,WSW,247,0.0,9.0,53,0.00,,,0.00,Rainwise IP-100,2017-03-23 05:41:00,
2017-03-23 00:46:00,42.0,28.0,30.15,SSE,157,5.0,7.0,54,0.00,,,0.00,Rainwise IP-100,2017-03-23 05:46:00,
2017-03-23 00:51:00,42.0,28.0,30.15,ESE,112,2.0,7.0,54,0.00,,,0.00,Rainwise IP-100,2017-03-23 05:51:00,
2017-03-23 00:52:00,42.0,26.0,30.15,WSW,247,0.0,10.0,53,0.00,,,0.00,Rainwise IP-100,2017-03-23 05:52:00,
2017-03-23 00:57:00,42.0,26.0,30.15,WNW,292,0.0,10.0,53,0.00,,,0.00,Rainwise IP-100,2017-03-23 05:57:00,
2017-03-23 01:02:00,42.0,26.0,30.14,SE,135,0.0,11.0,52,0.00,,,0.00,Rainwise IP-100,2017-03-23 06:02:00,
2017-03-23 01:07:00,43.0,28.0,30.14,SE,135,1.0,10.0,52,0.00,,,0.00,Rainwise IP-100,2017-03-23 06:07:00,
2017-03-23 01:13:00,42.0,26.0,30.14,WSW,247,2.0,9.0,52,0.00,,,0.00,Rainwise IP-100,2017-03-23 06:13:00,
2017-03-23 01:18:00,42.0,26.0,30.14,WSW,247,0.0,9.0,52,0.00,,,0.00,Rainwise IP-100,2017-03-23 06:18:00,
2017-03-23 01:23:00,42.0,26.0,30.14,WSW,247,0.0,9.0,52,0.00,,,0.00,Rainwise IP-100,2017-03-23 06:23:00,
2017-03-23 01:28:00,42.0,26.0,30.14,South,180,0.0,6.0,52,0.00,,,0.00,Rainwise IP-100,2017-03-23 06:28:00,
2017-03-23 01:33:00,42.0,26.0,30.14,ESE,112,0.0,9.0,53,0.00,,,0.00,Rainwise IP-100,2017-03-23 06:33:00,
2017-03-23 01:34:00,42.0,26.0,30.14,South,180,2.0,11.0,53,0.00,,,0.00,Rainwise IP-100,2017-03-23 06:34:00,
2017-03-23 01:39:00,42.0,26.0,30.14,SW,225,3.0,9.0,53,0.00,,,0.00,Rainwise IP-100,2017-03-23 06:39:00,
2017-03-23 01:44:00,42.0,26.0,30.14,SE,135,0.0,8.0,53,0.00,,,0.00,Rainwise IP-100,2017-03-23 06:44:00,
2017-03-23 01:49:00,42.0,28.0,30.14,SSW,202,7.0,7.0,54,0.00,,,0.00,Rainwise IP-100,2017-03-23 06:49:00,
2017-03-23 01:54:00,42.0,26.0,30.14,SW,225,5.0,11.0,53,0.00,,,0.00,Rainwise IP-100,2017-03-23 06:54:00,
2017-03-23 01:59:00,42.0,28.0,30.14,WSW,247,0.0,5.0,54,0.00,,,0.00,Rainwise IP-100,2017-03-23 06:59:00,
2017-03-23 02:04:00,42.0,26.0,30.14,South,180,0.0,10.0,53,0.00,,,0.00,Rainwise IP-100,2017-03-23 07:04:00,
2017-03-23 02:09:00,42.0,28.0,30.14,WSW,247,0.0,6.0,54,0.00,,,0.00,Rainwise IP-100,2017-03-23 07:09:00,
2017-03-23 02:14:00,42.0,28.0,30.13,ENE,67,0.0,10.0,54,0.00,,,0.00,Rainwise IP-100,2017-03-23 07:14:00,
2017-03-23 02:19:00,42.0,28.0,30.13,SSW,202,1.0,13.0,54,0.00,,,0.00,Rainwise IP-100,2017-03-23 07:19:00,
2017-03-23 02:24:00,42.0,28.0,30.13,NW,315,0.0,9.0,54,0.00,,,0.00,Rainwise IP-100,2017-03-23 07:24:00,
2017-03-23 02:29:00,42.0,28.0,30.12,WSW,247,0.0,9.0,54,0.00,,,0.00,Rainwise IP-100,2017-03-23 07:29:00,
2017-03-23 02:34:00,42.0,28.0,30.12,SSE,157,0.0,13.0,54,0.00,,,0.00,Rainwise IP-100,2017-03-23 07:34:00,
2017-03-23 02:39:00,42.0,28.0,30.12,SW,225,0.0,7.0,54,0.00,,,0.00,Rainwise IP-100,2017-03-23 07:39:00,
2017-03-23 02:44:00,42.0,28.0,30.12,SSW,202,0.0,8.0,54,0.00,,,0.00,Rainwise IP-100,2017-03-23 07:44:00,
2017-03-23 02:49:00,42.0,28.0,30.12,SE,135,0.0,13.0,55,0.00,,,0.00,Rainwise IP-100,2017-03-23 07:49:00,
2017-03-23 02:54:00,42.0,28.0,30.12,SW,225,6.0,6.0,54,0.00,,,0.00,Rainwise IP-100,2017-03-23 07:54:00,
2017-03-23 02:59:00,43.0,28.0,30.10,SE,135,6.0,13.0,54,0.00,,,0.00,Rainwise IP-100,2017-03-23 07:59:00,
2017-03-23 03:04:00,42.0,28.0,30.10,SE,135,2.0,9.0,54,0.00,,,0.00,Rainwise IP-100,2017-03-23 08:04:00,
2017-03-23 03:09:00,42.0,28.0,30.10,SW,225,0.0,8.0,55,0.00,,,0.00,Rainwise IP-100,2017-03-23 08:09:00,
2017-03-23 03:14:00,42.0,28.0,30.10,SSW,202,0.0,10.0,54,0.00,,,0.00,Rainwise IP-100,2017-03-23 08:14:00,
2017-03-23 03:19:00,42.0,28.0,30.10,SW,225,1.0,9.0,54,0.00,,,0.00,Rainwise IP-100,2017-03-23 08:19:00,
2017-03-23 03:24:00,42.0,28.0,30.10,SW,225,0.0,11.0,54,0.00,,,0.00,Rainwise IP-100,2017-03-23 08:24:00,
2017-03-23 03:29:00,42.0,28.0,30.10,SW,225,0.0,5.0,55,0.00,,,0.00,Rainwise IP-100,2017-03-23 08:29:00,
2017-03-23 03:34:00,43.0,28.0,30.10,South,180,1.0,6.0,54,0.00,,,0.00,Rainwise IP-100,2017-03-23 08:34:00,
2017-03-23 03:39:00,42.0,28.0,30.10,SSE,157,0.0,7.0,55,0.00,,,0.00,Rainwise IP-100,2017-03-23 08:39:00,
2017-03-23 03:44:00,42.0,28.0,30.10,SW,225,1.0,12.0,54,0.00,,,0.00,Rainwise IP-100,2017-03-23 08:44:00,
2017-03-23 03:49:00,42.0,28.0,30.08,SSW,202,2.0,12.0,54,0.00,,,0.00,Rainwise IP-100,2017-03-23 08:49:00,
2017-03-23 03:54:00,42.0,28.0,30.08,East,90,0.0,4.0,54,0.00,,,0.00,Rainwise IP-100,2017-03-23 08:54:00,
2017-03-23 04:00:00,42.0,28.0,30.08,SSW,202,1.0,7.0,54,0.00,,,0.00,Rainwise IP-100,2017-03-23 09:00:00,
2017-03-23 04:05:00,42.0,28.0,30.08,South,180,0.0,10.0,54,0.00,,,0.00,Rainwise IP-100,2017-03-23 09:05:00,
2017-03-23 04:10:00,43.0,28.0,30.08,SW,225,4.0,10.0,53,0.00,,,0.00,Rainwise IP-100,2017-03-23 09:10:00,
2017-03-23 04:15:00,42.0,26.0,30.08,ESE,112,0.0,10.0,53,0.00,,,0.00,Rainwise IP-100,2017-03-23 09:15:00,
2017-03-23 04:20:00,43.0,28.0,30.08,SSW,202,0.0,10.0,53,0.00,,,0.00,Rainwise IP-100,2017-03-23 09:20:00,
2017-03-23 04:25:00,43.0,28.0,30.07,SW,225,0.0,14.0,53,0.00,,,0.00,Rainwise IP-100,2017-03-23 09:25:00,
2017-03-23 04:35:00,42.0,26.0,30.07,SSW,202,0.0,8.0,53,0.00,,,0.00,Rainwise IP-100,2017-03-23 09:35:00,
2017-03-23 04:40:00,42.0,26.0,30.08,SSW,202,0.0,9.0,53,0.00,,,0.00,Rainwise IP-100,2017-03-23 09:40:00,
2017-03-23 04:45:00,42.0,26.0,30.07,SE,135,1.0,10.0,52,0.00,,,0.00,Rainwise IP-100,2017-03-23 09:45:00,
2017-03-23 04:50:00,42.0,26.0,30.07,South,180,1.0,12.0,52,0.00,,,0.00,Rainwise IP-100,2017-03-23 09:50:00,
2017-03-23 04:55:00,42.0,26.0,30.06,West,270,0.0,14.0,53,0.00,,,0.00,Rainwise IP-100,2017-03-23 09:55:00,
2017-03-23 05:00:00,42.0,28.0,30.07,SW,225,3.0,7.0,54,0.00,,,0.00,Rainwise IP-100,2017-03-23 10:00:00,
2017-03-23 05:05:00,42.0,28.0,30.07,WSW,247,0.0,7.0,54,0.00,,,0.00,Rainwise IP-100,2017-03-23 10:05:00,
2017-03-23 05:10:00,42.0,28.0,30.07,South,180,3.0,8.0,54,0.00,,,0.00,Rainwise IP-100,2017-03-23 10:10:00,
2017-03-23 05:15:00,42.0,26.0,30.06,WSW,247,2.0,10.0,52,0.00,,,0.00,Rainwise IP-100,2017-03-23 10:15:00,
2017-03-23 05:25:00,42.0,26.0,30.06,SW,225,0.0,8.0,52,0.00,,,0.00,Rainwise IP-100,2017-03-23 10:25:00,
2017-03-23 05:30:00,42.0,26.0,30.06,SSW,202,3.0,10.0,52,0.00,,,0.00,Rainwise IP-100,2017-03-23 10:30:00,
2017-03-23 05:40:00,42.0,26.0,30.06,SSW,202,4.0,8.0,52,0.00,,,0.00,Rainwise IP-100,2017-03-23 10:40:00,
2017-03-23 05:45:00,42.0,26.0,30.06,West,270,4.0,9.0,52,0.00,,,0.00,Rainwise IP-100,2017-03-23 10:45:00,
2017-03-23 05:50:00,42.0,26.0,30.06,West,270,2.0,10.0,51,0.00,,,0.00,Rainwise IP-100,2017-03-23 10:50:00,
2017-03-23 05:55:00,42.0,26.0,30.06,ESE,112,0.0,10.0,51,0.00,,,0.00,Rainwise IP-100,2017-03-23 10:55:00,
2017-03-23 06:00:00,42.0,26.0,30.06,SW,225,3.0,7.0,51,0.00,,,0.00,Rainwise IP-100,2017-03-23 11:00:00,
2017-03-23 06:05:00,42.0,26.0,30.06,SSW,202,0.0,9.0,51,0.00,,,0.00,Rainwise IP-100,2017-03-23 11:05:00,
2017-03-23 06:10:00,42.0,26.0,30.06,SW,225,1.0,6.0,51,0.00,,,0.00,Rainwise IP-100,2017-03-23 11:10:00,
2017-03-23 06:20:00,42.0,26.0,30.05,SSE,157,0.0,7.0,51,0.00,,,0.00,Rainwise IP-100,2017-03-23 11:20:00,
2017-03-23 06:25:00,42.0,26.0,30.05,WSW,247,0.0,9.0,51,0.00,,,0.00,Rainwise IP-100,2017-03-23 11:25:00,
2017-03-23 06:30:00,42.0,26.0,30.04,SSE,157,3.0,6.0,51,0.00,,,0.00,Rainwise IP-100,2017-03-23 11:30:00,
2017-03-23 06:40:00,42.0,26.0,30.04,SE,135,0.0,6.0,51,0.00,,,0.00,Rainwise IP-100,2017-03-23 11:40:00,
2017-03-23 06:42:00,42.0,26.0,30.04,SW,225,0.0,7.0,51,0.00,,,0.00,Rainwise IP-100,2017-03-23 11:42:00,
2017-03-23 06:47:00,42.0,26.0,30.04,SSE,157,0.0,4.0,51,0.00,,,0.00,Rainwise IP-100,2017-03-23 11:47:00,
2017-03-23 06:52:00,42.0,26.0,30.04,WNW,292,0.0,7.0,51,0.00,,,0.00,Rainwise IP-100,2017-03-23 11:52:00,
2017-03-23 06:57:00,42.0,26.0,30.04,ESE,112,9.0,9.0,51,0.00,,,0.00,Rainwise IP-100,2017-03-23 11:57:00,
2017-03-23 07:02:00,42.0,26.0,30.03,WSW,247,6.0,10.0,52,0.00,,,0.00,Rainwise IP-100,2017-03-23 12:02:00,
2017-03-23 07:07:00,41.0,26.0,30.04,SSW,202,4.0,10.0,52,0.00,,,0.00,Rainwise IP-100,2017-03-23 12:07:00,
2017-03-23 07:12:00,41.0,26.0,30.04,SSE,157,0.0,10.0,52,0.00,,,0.00,Rainwise IP-100,2017-03-23 12:12:00,
2017-03-23 07:17:00,41.0,26.0,30.04,SSW,202,0.0,11.0,52,0.00,,,0.00,Rainwise IP-100,2017-03-23 12:17:00,
2017-03-23 07:22:00,41.0,26.0,30.03,ESE,112,1.0,12.0,52,0.00,,,0.00,Rainwise IP-100,2017-03-23 12:22:00,
2017-03-23 07:27:00,41.0,26.0,30.02,ESE,112,1.0,12.0,52,0.00,,,0.00,Rainwise IP-100,2017-03-23 12:27:00,
2017-03-23 07:42:00,42.0,26.0,30.03,SSE,157,0.0,14.0,51,0.00,,,0.00,Rainwise IP-100,2017-03-23 12:42:00,
2017-03-23 07:47:00,42.0,26.0,30.02,SE,135,0.0,9.0,52,0.00,,,0.00,Rainwise IP-100,2017-03-23 12:47:00,
2017-03-23 07:52:00,42.0,26.0,30.02,SSE,157,0.0,5.0,52,0.00,,,0.00,Rainwise IP-100,2017-03-23 12:52:00,
2017-03-23 07:57:00,42.0,26.0,30.02,NNW,337,0.0,6.0,51,0.00,,,0.00,Rainwise IP-100,2017-03-23 12:57:00,
2017-03-23 08:02:00,42.0,26.0,30.02,SE,135,8.0,8.0,52,0.00,,,0.00,Rainwise IP-100,2017-03-23 13:02:00,
2017-03-23 08:07:00,42.0,26.0,30.02,SSE,157,0.0,10.0,51,0.00,,,0.00,Rainwise IP-100,2017-03-23 13:07:00,
2017-03-23 08:12:00,42.0,26.0,30.02,South,180,1.0,11.0,51,0.00,,,0.00,Rainwise IP-100,2017-03-23 13:12:00,
2017-03-23 08:17:00,42.0,26.0,30.02,SSE,157,0.0,9.0,51,0.00,,,0.00,Rainwise IP-100,2017-03-23 13:17:00,
2017-03-23 08:22:00,43.0,26.0,30.01,SW,225,0.0,7.0,51,0.00,,,0.00,Rainwise IP-100,2017-03-23 13:22:00,
2017-03-23 08:32:00,43.0,26.0,30.01,ESE,112,0.0,9.0,51,0.00,,,0.00,Rainwise IP-100,2017-03-23 13:32:00,
2017-03-23 08:38:00,43.0,26.0,30.01,East,90,0.0,5.0,50,0.00,,,0.00,Rainwise IP-100,2017-03-23 13:38:00,
2017-03-23 08:43:00,44.0,28.0,30.00,SSW,202,0.0,6.0,51,0.00,,,0.00,Rainwise IP-100,2017-03-23 13:43:00,
2017-03-23 08:48:00,44.0,28.0,30.00,SSE,157,4.0,10.0,50,0.00,,,0.00,Rainwise IP-100,2017-03-23 13:48:00,
2017-03-23 08:53:00,44.0,28.0,30.00,SSE,157,0.0,11.0,51,0.00,,,0.00,Rainwise IP-100,2017-03-23 13:53:00,
2017-03-23 08:58:00,44.0,28.0,30.00,SW,225,0.0,10.0,52,0.00,,,0.00,Rainwise IP-100,2017-03-23 13:58:00,
2017-03-23 09:03:00,44.0,28.0,30.00,South,180,2.0,13.0,52,0.00,,,0.00,Rainwise IP-100,2017-03-23 14:03:00,
2017-03-23 09:08:00,44.0,28.0,30.01,SE,135,2.0,12.0,53,0.00,,,0.00,Rainwise IP-100,2017-03-23 14:08:00,
2017-03-23 09:13:00,44.0,28.0,30.00,WSW,247,0.0,9.0,53,0.00,,,0.00,Rainwise IP-100,2017-03-23 14:13:00,
2017-03-23 09:18:00,44.0,28.0,30.00,ESE,112,3.0,10.0,53,0.00,,,0.00,Rainwise IP-100,2017-03-23 14:18:00,
2017-03-23 09:23:00,44.0,29.0,30.00,ESE,112,0.0,9.0,55,0.00,,,0.00,Rainwise IP-100,2017-03-23 14:23:00,
2017-03-23 09:28:00,44.0,29.0,30.00,SSW,202,1.0,7.0,55,0.00,,,0.00,Rainwise IP-100,2017-03-23 14:28:00,
2017-03-23 09:33:00,44.0,29.0,29.98,West,270,0.0,12.0,56,0.00,,,0.00,Rainwise IP-100,2017-03-23 14:33:00,
2017-03-23 09:38:00,45.0,31.0,29.98,ESE,112,1.0,6.0,56,0.00,,,0.00,Rainwise IP-100,2017-03-23 14:38:00,
2017-03-23 09:43:00,45.0,31.0,29.97,SSE,157,2.0,16.0,57,0.00,,,0.00,Rainwise IP-100,2017-03-23 14:43:00,
2017-03-23 09:48:00,45.0,31.0,29.97,SSE,157,0.0,10.0,57,0.00,,,0.00,Rainwise IP-100,2017-03-23 14:48:00,
2017-03-23 09:53:00,45.0,31.0,29.96,SSE,157,8.0,8.0,57,0.00,,,0.00,Rainwise IP-100,2017-03-23 14:53:00,
2017-03-23 09:58:00,45.0,31.0,29.96,SE,135,0.0,10.0,58,0.00,,,0.00,Rainwise IP-100,2017-03-23 14:58:00,
2017-03-23 10:03:00,45.0,31.0,29.96,WSW,247,0.0,8.0,58,0.00,,,0.00,Rainwise IP-100,2017-03-23 15:03:00,
2017-03-23 10:08:00,45.0,32.0,29.96,West,270,2.0,7.0,59,0.00,,,0.00,Rainwise IP-100,2017-03-23 15:08:00,
2017-03-23 10:13:00,45.0,32.0,29.96,ESE,112,0.0,9.0,60,0.00,,,0.00,Rainwise IP-100,2017-03-23 15:13:00,
2017-03-23 10:18:00,46.0,33.0,29.96,South,180,0.0,14.0,60,0.00,,,0.00,Rainwise IP-100,2017-03-23 15:18:00,
2017-03-23 10:23:00,46.0,33.0,29.96,South,180,0.0,4.0,60,0.00,,,0.00,Rainwise IP-100,2017-03-23 15:23:00,
2017-03-23 10:28:00,46.0,33.0,29.96,SSW,202,3.0,15.0,60,0.00,,,0.00,Rainwise IP-100,2017-03-23 15:28:00,
2017-03-23 10:33:00,46.0,33.0,29.96,NW,315,0.0,7.0,61,0.00,,,0.00,Rainwise IP-100,2017-03-23 15:33:00,
2017-03-23 10:38:00,46.0,33.0,29.95,ESE,112,1.0,7.0,61,0.00,,,0.00,Rainwise IP-100,2017-03-23 15:38:00,
2017-03-23 10:43:00,46.0,33.0,29.94,WSW,247,3.0,12.0,62,0.00,,,0.00,Rainwise IP-100,2017-03-23 15:43:00,
2017-03-23 10:48:00,47.0,35.0,29.94,SW,225,0.0,7.0,62,0.00,,,0.00,Rainwise IP-100,2017-03-23 15:48:00,
2017-03-23 10:53:00,47.0,35.0,29.95,SSW,202,2.0,11.0,62,0.00,,,0.00,Rainwise IP-100,2017-03-23 15:53:00,
2017-03-23 10:58:00,47.0,35.0,29.95,SE,135,5.0,9.0,63,0.00,,,0.00,Rainwise IP-100,2017-03-23 15:58:00,
2017-03-23 11:03:00,47.0,35.0,29.95,South,180,0.0,10.0,63,0.00,,,0.00,Rainwise IP-100,2017-03-23 16:03:00,
2017-03-23 11:08:00,47.0,35.0,29.95,SE,135,3.0,6.0,64,0.00,,,0.00,Rainwise IP-100,2017-03-23 16:08:00,
2017-03-23 11:13:00,47.0,35.0,29.96,SSE,157,9.0,9.0,64,0.00,,,0.00,Rainwise IP-100,2017-03-23 16:13:00,
2017-03-23 11:18:00,47.0,35.0,29.95,SE,135,4.0,9.0,64,0.00,,,0.00,Rainwise IP-100,2017-03-23 16:18:00,
2017-03-23 11:23:00,47.0,35.0,29.96,SW,225,0.0,6.0,64,0.00,,,0.00,Rainwise IP-100,2017-03-23 16:23:00,
2017-03-23 11:28:00,47.0,36.0,29.96,WNW,292,6.0,9.0,65,0.00,,,0.00,Rainwise IP-100,2017-03-23 16:28:00,
2017-03-23 11:33:00,47.0,36.0,29.95,ESE,112,0.0,12.0,65,0.00,,,0.00,Rainwise IP-100,2017-03-23 16:33:00,
2017-03-23 11:38:00,48.0,37.0,29.94,East,90,1.0,7.0,65,0.00,,,0.00,Rainwise IP-100,2017-03-23 16:38:00,
2017-03-23 11:43:00,48.0,37.0,29.94,SE,135,2.0,7.0,65,0.00,,,0.00,Rainwise IP-100,2017-03-23 16:43:00,
2017-03-23 11:48:00,48.0,37.0,29.94,South,180,0.0,6.0,66,0.00,,,0.00,Rainwise IP-100,2017-03-23 16:48:00,
2017-03-23 11:53:00,49.0,38.0,29.93,ESE,112,10.0,10.0,65,0.00,,,0.00,Rainwise IP-100,2017-03-23 16:53:00,
2017-03-23 11:58:00,49.0,38.0,29.92,SSE,157,4.0,10.0,65,0.00,,,0.00,Rainwise IP-100,2017-03-23 16:58:00,
2017-03-23 12:03:00,49.0,38.0,29.92,SSE,157,0.0,10.0,65,0.00,,,0.00,Rainwise IP-100,2017-03-23 17:03:00,
2017-03-23 12:08:00,49.0,38.0,29.93,ESE,112,6.0,11.0,65,0.00,,,0.00,Rainwise IP-100,2017-03-23 17:08:00,
2017-03-23 12:13:00,50.0,38.0,29.91,SSE,157,1.0,6.0,65,0.00,,,0.00,Rainwise IP-100,2017-03-23 17:13:00,
2017-03-23 12:18:00,50.0,38.0,29.91,SW,225,3.0,14.0,64,0.00,,,0.00,Rainwise IP-100,2017-03-23 17:18:00,
2017-03-23 12:23:00,50.0,38.0,29.91,SSE,157,4.0,9.0,64,0.00,,,0.00,Rainwise IP-100,2017-03-23 17:23:00,
2017-03-23 12:28:00,51.0,39.0,29.89,SW,225,1.0,7.0,63,0.00,,,0.00,Rainwise IP-100,2017-03-23 17:28:00,
2017-03-23 12:33:00,52.0,39.0,29.88,South,180,1.0,10.0,62,0.00,,,0.00,Rainwise IP-100,2017-03-23 17:33:00,
2017-03-23 12:38:00,52.0,39.0,29.88,SSW,202,3.0,14.0,62,0.00,,,0.00,Rainwise IP-100,2017-03-23 17:38:00,
2017-03-23 12:43:00,52.0,39.0,29.88,South,180,0.0,9.0,61,0.00,,,0.00,Rainwise IP-100,2017-03-23 17:43:00,
2017-03-23 12:44:00,52.0,39.0,29.88,SW,225,0.0,9.0,61,0.00,,,0.00,Rainwise IP-100,2017-03-23 17:44:00,
2017-03-23 12:49:00,53.0,39.0,29.87,ESE,112,9.0,9.0,60,0.00,,,0.00,Rainwise IP-100,2017-03-23 17:49:00,
2017-03-23 12:54:00,53.0,39.0,29.87,SE,135,0.0,15.0,60,0.00,,,0.00,Rainwise IP-100,2017-03-23 17:54:00,
2017-03-23 12:59:00,53.0,39.0,29.87,SW,225,1.0,10.0,60,0.00,,,0.00,Rainwise IP-100,2017-03-23 17:59:00,
2017-03-23 13:04:00,53.0,39.0,29.86,SW,225,0.0,13.0,61,0.00,,,0.00,Rainwise IP-100,2017-03-23 18:04:00,
2017-03-23 13:09:00,53.0,39.0,29.86,SSE,157,2.0,7.0,60,0.00,,,0.00,Rainwise IP-100,2017-03-23 18:09:00,
2017-03-23 13:11:00,53.0,39.0,29.87,SW,225,12.0,12.0,61,0.00,,,0.00,Rainwise IP-100,2017-03-23 18:11:00,
2017-03-23 13:16:00,53.0,39.0,29.86,SSW,202,4.0,13.0,61,0.00,,,0.00,Rainwise IP-100,2017-03-23 18:16:00,
2017-03-23 13:21:00,54.0,41.0,29.86,SSW,202,4.0,9.0,61,0.00,,,0.00,Rainwise IP-100,2017-03-23 18:21:00,
2017-03-23 13:26:00,54.0,41.0,29.85,SW,225,0.0,5.0,61,0.00,,,0.00,Rainwise IP-100,2017-03-23 18:26:00,
2017-03-23 13:31:00,55.0,41.0,29.84,South,180,6.0,6.0,60,0.00,,,0.00,Rainwise IP-100,2017-03-23 18:31:00,
2017-03-23 13:36:00,55.0,41.0,29.84,WSW,247,0.0,7.0,59,0.00,,,0.00,Rainwise IP-100,2017-03-23 18:36:00,
2017-03-23 13:41:00,55.0,41.0,29.83,SE,135,8.0,8.0,59,0.00,,,0.00,Rainwise IP-100,2017-03-23 18:41:00,
2017-03-23 13:46:00,56.0,41.0,29.83,WNW,292,0.0,8.0,58,0.00,,,0.00,Rainwise IP-100,2017-03-23 18:46:00,
2017-03-23 13:51:00,56.0,41.0,29.82,SE,135,5.0,5.0,58,0.00,,,0.00,Rainwise IP-100,2017-03-23 18:51:00,
2017-03-23 13:56:00,56.0,41.0,29.82,WSW,247,5.0,7.0,58,0.00,,,0.00,Rainwise IP-100,2017-03-23 18:56:00,
2017-03-23 14:01:00,56.0,42.0,29.83,SW,225,5.0,12.0,59,0.00,,,0.00,Rainwise IP-100,2017-03-23 19:01:00,
2017-03-23 14:06:00,55.0,41.0,29.84,WSW,247,2.0,13.0,59,0.00,,,0.00,Rainwise IP-100,2017-03-23 19:06:00,
2017-03-23 14:11:00,55.0,41.0,29.84,SW,225,0.0,12.0,59,0.00,,,0.00,Rainwise IP-100,2017-03-23 19:11:00,
2017-03-23 14:16:00,55.0,41.0,29.84,West,270,6.0,6.0,60,0.00,,,0.00,Rainwise IP-100,2017-03-23 19:16:00,
2017-03-23 14:21:00,55.0,42.0,29.85,West,270,0.0,7.0,61,0.00,,,0.00,Rainwise IP-100,2017-03-23 19:21:00,
2017-03-23 14:27:00,55.0,42.0,29.85,WSW,247,0.0,6.0,61,0.00,,,0.00,Rainwise IP-100,2017-03-23 19:27:00,
2017-03-23 14:32:00,55.0,42.0,29.85,South,180,0.0,6.0,61,0.00,,,0.00,Rainwise IP-100,2017-03-23 19:32:00,
2017-03-23 14:37:00,55.0,42.0,29.83,SE,135,3.0,7.0,62,0.00,,,0.00,Rainwise IP-100,2017-03-23 19:37:00,
2017-03-23 14:42:00,54.0,42.0,29.83,SSW,202,6.0,12.0,64,0.00,,,0.00,Rainwise IP-100,2017-03-23 19:42:00,
2017-03-23 14:47:00,54.0,43.0,29.83,SSE,157,4.0,12.0,66,0.00,,,0.00,Rainwise IP-100,2017-03-23 19:47:00,
2017-03-23 14:52:00,53.0,42.0,29.81,ESE,112,2.0,19.0,68,0.00,,,0.00,Rainwise IP-100,2017-03-23 19:52:00,
2017-03-23 14:57:00,53.0,43.0,29.75,South,180,1.0,22.0,70,0.00,,,0.00,Rainwise IP-100,2017-03-23 19:57:00,
2017-03-23 15:02:00,53.0,43.0,29.72,ESE,112,4.0,15.0,70,0.00,,,0.00,Rainwise IP-100,2017-03-23 20:02:00,
2017-03-23 15:07:00,53.0,43.0,29.72,West,270,11.0,16.0,70,0.00,,,0.00,Rainwise IP-100,2017-03-23 20:07:00,
2017-03-23 15:12:00,53.0,42.0,29.81,West,270,6.0,26.0,67,0.00,,,0.00,Rainwise IP-100,2017-03-23 20:12:00,
2017-03-23 15:17:00,54.0,44.0,29.79,ESE,112,8.0,13.0,69,0.00,,,0.00,Rainwise IP-100,2017-03-23 20:17:00,
2017-03-23 15:22:00,54.0,44.0,29.79,South,180,2.0,11.0,69,0.00,,,0.00,Rainwise IP-100,2017-03-23 20:22:00,
2017-03-23 15:27:00,54.0,45.0,29.79,ESE,112,0.0,5.0,71,0.00,,,0.00,Rainwise IP-100,2017-03-23 20:27:00,
2017-03-23 15:32:00,54.0,44.0,29.80,SW,225,4.0,12.0,69,0.00,,,0.00,Rainwise IP-100,2017-03-23 20:32:00,
2017-03-23 15:37:00,54.0,44.0,29.81,WSW,247,0.0,11.0,69,0.00,,,0.00,Rainwise IP-100,2017-03-23 20:37:00,
2017-03-23 15:42:00,54.0,44.0,29.81,WSW,247,2.0,9.0,69,0.00,,,0.00,Rainwise IP-100,2017-03-23 20:42:00,
2017-03-23 15:47:00,55.0,45.0,29.79,SSW,202,0.0,6.0,68,0.00,,,0.00,Rainwise IP-100,2017-03-23 20:47:00,
2017-03-23 15:52:00,55.0,45.0,29.80,SW,225,0.0,2.0,68,0.00,,,0.00,Rainwise IP-100,2017-03-23 20:52:00,
2017-03-23 15:57:00,55.0,44.0,29.80,SSW,202,2.0,5.0,67,0.00,,,0.00,Rainwise IP-100,2017-03-23 20:57:00,
2017-03-23 15:58:00,55.0,45.0,29.80,SSW,202,0.0,5.0,68,0.00,,,0.00,Rainwise IP-100,2017-03-23 20:58:00,
2017-03-23 16:03:00,55.0,44.0,29.79,SSW,202,0.0,1.0,67,0.00,,,0.00,Rainwise IP-100,2017-03-23 21:03:00,
2017-03-23 16:08:00,55.0,44.0,29.79,SE,135,0.0,0.0,67,0.00,,,0.00,Rainwise IP-100,2017-03-23 21:08:00,
2017-03-23 16:13:00,55.0,44.0,29.78,West,270,0.0,0.0,67,0.00,,,0.00,Rainwise IP-100,2017-03-23 21:13:00,
2017-03-23 16:18:00,55.0,44.0,29.77,SE,135,0.0,6.0,67,0.00,,,0.00,Rainwise IP-100,2017-03-23 21:18:00,
2017-03-23 16:23:00,55.0,45.0,29.77,SSE,157,0.0,7.0,68,0.00,,,0.00,Rainwise IP-100,2017-03-23 21:23:00,
2017-03-23 16:28:00,55.0,45.0,29.75,West,270,0.0,4.0,68,0.00,,,0.00,Rainwise IP-100,2017-03-23 21:28:00,
2017-03-23 16:33:00,56.0,45.0,29.77,ESE,112,4.0,6.0,67,0.00,,,0.00,Rainwise IP-100,2017-03-23 21:33:00,
2017-03-23 16:38:00,56.0,45.0,29.76,ESE,112,3.0,6.0,67,0.00,,,0.00,Rainwise IP-100,2017-03-23 21:38:00,
2017-03-23 16:43:00,56.0,46.0,29.76,SSE,157,0.0,6.0,68,0.00,,,0.00,Rainwise IP-100,2017-03-23 21:43:00,
2017-03-23 16:48:00,56.0,46.0,29.75,South,180,3.0,3.0,68,0.00,,,0.00,Rainwise IP-100,2017-03-23 21:48:00,
2017-03-23 16:53:00,57.0,46.0,29.74,East,90,0.0,3.0,66,0.00,,,0.00,Rainwise IP-100,2017-03-23 21:53:00,
2017-03-23 16:58:00,57.0,46.0,29.74,ESE,112,0.0,5.0,66,0.00,,,0.00,Rainwise IP-100,2017-03-23 21:58:00,
2017-03-23 17:08:00,58.0,47.0,29.75,ESE,112,0.0,3.0,66,0.00,,,0.00,Rainwise IP-100,2017-03-23 22:08:00,
2017-03-23 17:13:00,59.0,47.0,29.75,ENE,67,0.0,2.0,65,0.00,,,0.00,Rainwise IP-100,2017-03-23 22:13:00,
2017-03-23 17:18:00,58.0,47.0,29.75,ESE,112,0.0,6.0,66,0.00,,,0.00,Rainwise IP-100,2017-03-23 22:18:00,
2017-03-23 17:23:00,58.0,47.0,29.75,ENE,67,0.0,0.0,67,0.00,,,0.00,Rainwise IP-100,2017-03-23 22:23:00,
2017-03-23 17:28:00,58.0,47.0,29.74,East,90,0.0,0.0,68,0.00,,,0.00,Rainwise IP-100,2017-03-23 22:28:00,
2017-03-23 17:34:00,58.0,47.0,29.74,SW,225,0.0,4.0,68,0.00,,,0.00,Rainwise IP-100,2017-03-23 22:34:00,
2017-03-23 17:39:00,59.0,48.0,29.74,SSE,157,0.0,0.0,67,0.00,,,0.00,Rainwise IP-100,2017-03-23 22:39:00,
2017-03-23 17:44:00,59.0,47.0,29.74,WSW,247,0.0,0.0,66,0.00,,,0.00,Rainwise IP-100,2017-03-23 22:44:00,
2017-03-23 17:49:00,60.0,48.0,29.74,SSW,202,0.0,5.0,65,0.00,,,0.00,Rainwise IP-100,2017-03-23 22:49:00,
2017-03-23 17:54:00,60.0,48.0,29.74,SE,135,2.0,7.0,65,0.00,,,0.00,Rainwise IP-100,2017-03-23 22:54:00,
2017-03-23 17:59:00,60.0,47.0,29.74,WSW,247,0.0,9.0,64,0.00,,,0.00,Rainwise IP-100,2017-03-23 22:59:00,
2017-03-23 18:04:00,60.0,47.0,29.74,South,180,5.0,5.0,63,0.00,,,0.00,Rainwise IP-100,2017-03-23 23:04:00,
2017-03-23 18:09:00,60.0,47.0,29.74,West,270,0.0,10.0,63,0.00,,,0.00,Rainwise IP-100,2017-03-23 23:09:00,
2017-03-23 18:14:00,60.0,47.0,29.74,SE,135,0.0,11.0,62,0.00,,,0.00,Rainwise IP-100,2017-03-23 23:14:00,
2017-03-23 18:19:00,60.0,47.0,29.73,SW,225,3.0,7.0,63,0.00,,,0.00,Rainwise IP-100,2017-03-23 23:19:00,
2017-03-23 18:24:00,60.0,47.0,29.73,ESE,112,1.0,5.0,63,0.00,,,0.00,Rainwise IP-100,2017-03-23 23:24:00,